Theta_e
320 322 325 325 323 324 327 330 332 332 332 332 332 331 331 330 329 328 328 329 329 328 326 325 325 325 325 325 326 327 327 326 326 326 325 324 323 322 322 322 322 322 323 324 326 327 328 330 330 331 331 330 329 326 325 324 324 325 325 325 325 324 324 323 322 321 319 320 319 316 311 313 319 323 330 333 333 335 333 332 334 333 331 330 332
317 319 323 324 324 323 324 327 329 330 331 332 331 331 330 330 329 327 327 326 326 326 324 324 323 324 324 325 326 326 326 326 325 325 324 324 323 323 323 323 323 324 326 328 328 328 329 331 331 333 332 331 330 327 326 325 325 325 326 327 327 327 326 326 325 324 322 320 320 319 316 317 323 328 333 332 331 332 328 327 329 333 333 330 330
316 317 320 322 322 322 323 323 324 328 330 331 331 331 331 331 330 328 326 325 325 325 325 325 324 324 324 325 326 326 326 326 325 324 323 323 324 325 325 326 326 327 330 331 330 330 331 330 331 332 330 329 329 328 328 327 326 325 325 326 327 327 327 326 326 325 325 323 320 320 319 321 329 334 336 335 332 329 325 322 320 326 332 331 329
317 315 315 318 319 320 321 321 322 324 327 329 330 331 331 332 331 330 329 328 327 327 326 326 325 325 325 326 326 328 328 328 327 325 325 324 325 326 326 328 328 328 330 331 331 332 333 332 330 330 328 328 328 328 327 326 325 324 323 324 325 326 326 326 326 326 325 324 322 321 320 320 328 335 337 338 336 333 331 327 321 319 322 324 323
319 316 314 315 315 317 318 319 320 321 323 326 328 329 330 331 332 332 331 330 329 328 326 326 326 326 327 328 329 331 330 329 329 328 327 326 326 327 328 329 328 328 330 332 333 334 333 331 330 330 329 328 327 326 325 323 321 321 322 323 324 325 326 326 325 325 325 325 324 322 320 319 324 331 335 337 337 337 336 333 327 322 319 318 317
321 317 315 314 314 314 315 316 318 318 320 323 326 327 327 328 330 330 330 330 329 328 326 326 327 328 329 330 331 332 331 331 331 329 328 327 327 328 328 328 328 329 331 332 333 333 331 330 329 329 328 326 324 322 322 321 320 319 320 321 322 323 324 326 325 325 325 325 325 324 323 320 320 325 332 334 335 336 336 335 331 325 321 319 319
322 319 317 315 314 313 313 314 315 316 317 320 322 323 323 324 326 328 329 330 329 328 328 329 330 330 331 331 332 332 332 332 331 330 328 327 327 327 326 326 327 329 330 330 330 329 329 329 328 328 328 326 321 318 317 316 315 314 314 314 315 316 318 321 325 326 326 326 326 326 326 324 321 321 328 331 333 335 335 335 333 329 324 319 319
321 320 318 316 315 314 313 313 313 314 315 317 318 319 320 321 324 327 328 329 329 329 330 331 332 332 332 332 333 332 332 331 331 330 328 327 326 325 325 325 326 327 327 326 324 323 323 324 325 326 326 323 316 312 312 311 311 310 310 311 311 311 312 314 318 322 324 326 326 327 327 327 325 321 323 326 330 333 333 333 333 331 326 321 318
321 320 318 317 315 314 313 313 312 312 313 314 314 315 317 320 323 325 327 328 329 330 332 332 332 332 332 332 332 332 332 330 329 329 327 326 326 325 324 323 323 322 321 320 318 316 316 316 318 318 318 315 311 310 310 309 309 309 308 308 309 309 309 310 311 314 317 321 323 325 326 328 329 326 323 322 327 331 330 330 331 330 327 323 319
321 320 319 318 316 314 314 313 312 312 312 312 313 314 316 319 322 324 327 328 329 330 332 332 332 332 331 332 332 331 330 329 327 325 322 322 323 322 319 317 316 315 314 314 313 312 312 312 312 312 311 310 308 308 307 306 306 305 305 305 306 306 306 307 307 309 310 313 316 319 323 325 327 329 327 324 325 328 328 328 328 330 329 325 321
322 321 319 318 317 315 314 313 313 312 313 313 314 313 315 319 321 324 328 329 330 330 331 331 332 332 331 331 331 329 328 327 323 319 316 316 316 315 313 312 312 311 311 311 310 310 309 309 309 308 307 306 305 305 304 304 304 304 304 304 304 304 305 305 305 305 306 308 309 312 316 319 323 328 329 328 326 326 326 328 328 329 329 328 327
321 321 320 319 318 316 315 314 313 313 315 315 314 312 313 318 320 324 329 328 328 328 329 330 331 331 330 328 327 325 324 321 316 314 313 312 312 311 311 310 310 309 309 308 307 307 306 306 305 305 304 304 304 304 304 304 304 304 304 304 304 304 305 305 305 305 305 305 305 307 309 313 318 323 326 328 328 328 328 328 329 330 329 329 331
320 321 320 319 318 317 316 315 314 314 315 315 313 312 311 314 316 320 324 324 324 324 325 327 327 326 324 322 320 319 319 315 312 312 311 311 310 310 309 307 307 306 305 305 304 304 304 304 304 304 304 304 304 304 304 304 304 304 304 304 304 305 305 305 305 305 305 305 305 305 305 307 311 316 320 323 324 326 328 329 330 330 330 330 332
318 319 320 319 319 317 316 315 314 314 315 315 313 312 312 312 313 314 316 317 319 318 319 320 320 319 317 317 316 315 314 311 310 310 309 309 307 306 305 304 304 304 304 304 304 304 304 304 304 304 304 303 304 304 304 304 304 304 305 305 305 305 305 305 305 305 305 305 305 304 304 305 306 309 313 316 318 321 324 327 329 330 330 331 332
316 318 318 319 318 318 317 316 315 314 315 315 313 312 312 312 312 312 313 313 314 314 314 314 315 315 314 315 314 311 311 309 309 307 306 305 305 304 304 304 304 304 304 304 304 304 304 304 304 304 304 304 304 304 305 306 306 306 306 306 307 306 306 306 306 306 305 305 305 305 304 304 304 305 307 310 312 314 316 320 324 327 329 330 330
316 316 317 318 318 318 317 316 315 314 314 315 313 312 311 312 312 312 312 312 312 312 312 311 312 312 311 312 312 310 309 308 306 305 304 304 304 304 304 303 303 304 303 304 304 303 303 303 303 304 304 305 305 306 306 306 306 306 307 307 307 307 307 307 307 307 306 306 305 305 304 304 303 303 304 306 307 309 310 313 317 321 325 327 328
315 315 316 317 317 318 317 316 316 315 314 314 314 313 312 312 312 312 312 312 312 311 311 310 310 310 309 310 311 309 308 306 305 304 305 305 305 304 303 303 303 303 303 303 303 303 303 303 304 304 305 306 306 306 305 306 306 306 306 306 307 307 307 307 307 307 307 306 305 305 304 304 303 303 303 303 304 305 307 309 312 315 319 322 325
315 315 315 316 316 317 317 316 316 315 314 314 314 313 313 312 313 313 313 312 311 310 310 310 309 310 309 309 309 307 306 304 304 305 305 305 304 304 303 303 303 303 303 303 303 303 303 304 305 305 306 305 305 305 305 305 305 305 305 306 306 306 306 307 307 307 307 307 306 305 304 303 303 303 303 303 303 303 304 306 308 311 314 316 320
316 315 315 315 315 316 316 316 316 315 314 314 314 313 313 313 313 313 313 312 311 310 310 309 309 309 309 309 308 306 305 304 305 305 305 305 304 304 304 303 303 303 303 303 303 304 304 305 305 305 305 305 305 304 305 304 304 305 305 305 305 305 305 306 306 306 307 306 306 305 304 304 303 302 302 302 303 303 303 303 305 307 309 311 313
316 315 315 315 315 315 315 316 316 316 315 314 314 314 313 313 313 313 312 311 310 310 310 309 309 309 308 308 306 305 305 305 305 306 305 305 304 304 304 303 303 303 303 303 303 304 305 305 305 305 305 304 304 304 304 304 304 304 304 304 304 305 305 305 305 305 306 306 306 305 305 304 303 303 302 302 302 302 303 302 303 304 305 306 308
317 316 315 315 315 315 315 315 315 315 315 314 314 314 313 313 313 312 312 311 310 310 309 309 308 308 308 307 305 304 305 305 306 306 305 304 304 304 303 303 303 303 303 303 304 304 304 305 305 304 304 304 304 304 304 304 304 304 304 304 304 304 304 305 305 305 305 305 305 305 304 304 303 303 302 302 302 302 302 302 303 303 304 304 305
317 316 316 316 315 315 315 315 315 315 315 315 314 313 313 312 312 312 312 311 310 309 309 309 309 308 308 306 305 305 305 305 306 306 305 304 304 304 303 303 303 303 303 303 303 304 304 304 304 304 304 304 304 304 304 304 304 304 304 304 304 304 304 304 304 304 304 304 304 304 303 303 302 302 302 302 302 302 302 302 303 303 303 304 304
316 317 317 316 316 316 315 315 314 315 315 315 314 314 313 312 312 312 312 311 310 309 309 309 309 309 308 306 304 305 305 305 306 305 305 304 304 303 303 303 303 303 303 303 303 304 304 304 304 304 303 303 304 304 304 304 304 304 304 304 304 304 304 304 304 304 304 304 303 303 303 302 302 302 302 302 302 302 302 302 302 303 303 303 303
316 316 317 316 316 316 316 315 315 314 314 315 315 314 313 312 312 312 311 311 310 309 309 309 309 309 308 305 304 305 305 305 305 305 305 304 304 303 303 303 302 302 302 303 303 303 304 304 303 303 303 303 303 303 303 304 304 304 304 303 303 303 303 304 304 303 303 303 302 302 302 302 302 301 301 301 302 302 302 302 302 302 303 303 303
315 316 316 316 317 316 316 316 315 314 314 315 315 315 314 313 312 311 311 311 310 310 309 309 309 309 308 306 304 304 305 305 305 306 306 305 304 303 303 303 302 302 302 302 303 303 303 303 303 303 303 303 303 303 303 303 303 303 303 303 303 303 303 303 304 304 303 303 302 301 301 301 301 301 301 301 301 302 302 302 302 302 302 302 302
315 315 315 316 316 316 316 316 316 315 314 315 315 315 314 313 312 311 311 311 311 310 309 309 309 309 308 306 304 304 304 305 306 307 306 305 304 303 303 302 302 302 302 302 303 303 303 303 303 303 303 303 303 303 303 303 303 303 303 303 303 303 303 303 303 304 303 303 302 301 301 301 301 301 301 301 301 301 301 301 301 301 301 302 302
315 315 315 315 316 316 316 316 316 315 315 314 314 315 314 314 313 312 311 311 311 310 310 310 310 309 309 307 304 304 305 305 305 306 307 306 304 303 303 303 302 302 302 303 303 303 303 302 302 303 303 303 303 303 303 303 303 303 303 302 302 303 303 303 303 303 303 303 302 302 301 301 300 300 300 300 301 301 301 301 301 301 301 301 301
314 315 315 315 315 316 316 316 316 316 315 314 314 315 314 314 313 313 312 312 311 311 311 310 310 310 309 307 304 304 304 305 305 306 307 306 305 304 303 303 302 303 303 303 303 303 303 302 303 303 303 303 303 303 303 303 303 303 302 302 302 302 302 303 303 303 303 303 303 302 301 301 300 300 300 300 300 300 300 300 300 300 300 300 301
315 315 315 315 315 315 316 316 316 316 316 315 314 314 314 314 314 313 313 312 312 311 311 310 310 310 309 307 305 304 304 304 305 305 306 306 305 304 304 303 303 303 303 303 303 302 302 302 302 303 303 303 303 303 303 303 303 303 302 302 302 302 302 302 302 303 303 303 303 302 302 301 300 300 300 299 299 299 299 299 300 300 300 300 301
316 316 315 315 315 315 315 315 316 316 316 316 315 315 314 314 314 314 314 313 313 311 311 310 310 310 309 308 306 304 304 304 304 304 305 305 305 304 304 303 303 303 303 303 303 302 302 302 302 302 303 303 303 303 303 303 303 303 302 302 302 301 302 302 302 302 303 303 303 302 302 301 301 300 300 299 299 299 299 299 299 300 300 300 301
316 316 316 316 315 315 315 315 315 315 315 315 315 315 315 314 314 314 314 314 313 312 311 310 310 310 309 308 307 305 304 304 304 304 304 305 304 304 304 303 303 303 302 302 302 302 302 302 302 302 303 303 303 303 303 303 302 302 302 302 302 301 301 301 302 302 303 303 303 302 302 301 300 300 299 299 298 298 298 298 299 299 299 300 301
316 316 316 316 315 315 315 314 315 315 315 315 315 315 315 315 314 314 314 314 314 313 312 311 310 310 309 308 308 306 304 303 304 304 304 304 304 304 303 303 303 302 302 302 302 302 302 301 302 302 302 302 302 302 302 302 302 302 302 302 301 301 301 301 301 302 302 302 302 302 301 301 300 299 299 298 298 298 298 298 298 299 299 300 301
315 316 316 315 316 315 315 314 314 314 315 315 315 315 315 315 315 314 314 314 314 314 313 312 311 310 309 309 308 307 304 303 303 303 303 303 303 303 303 303 302 302 302 302 302 301 301 301 302 302 302 302 302 302 302 302 302 302 302 302 301 301 301 301 301 301 302 302 302 302 301 300 299 298 298 298 298 298 298 298 298 298 298 299 300
314 315 315 316 315 315 315 315 314 314 314 314 315 314 315 315 315 314 314 314 314 314 313 313 312 310 310 309 308 308 306 303 302 303 303 303 303 302 302 302 302 301 301 301 301 301 301 301 301 301 302 302 301 301 301 301 301 301 301 301 301 301 301 301 301 301 301 301 301 300 300 299 298 298 298 298 298 298 298 298 298 298 298 298 298
314 314 315 315 316 315 315 315 314 314 314 314 314 314 314 314 314 314 314 314 314 314 314 313 312 311 310 309 308 308 307 304 302 302 302 302 302 302 302 302 301 301 301 301 300 300 300 301 301 301 301 301 301 301 301 301 301 301 301 301 301 301 301 300 300 301 300 300 299 299 298 298 298 297 297 297 297 297 297 297 297 298 298 298 298
314 314 314 314 315 315 315 315 315 315 314 314 313 313 314 314 314 314 314 314 314 314 314 313 313 311 310 309 308 308 308 306 304 302 302 302 302 302 301 301 301 300 300 300 300 300 300 300 300 301 301 301 301 300 300 300 301 301 301 301 301 300 300 300 300 300 299 298 298 297 297 297 297 297 297 297 297 297 297 297 297 297 297 298 298
314 313 314 314 314 314 315 315 315 315 314 314 313 313 313 314 314 314 314 314 314 314 313 313 313 312 310 310 309 308 308 307 305 303 302 302 302 301 301 301 301 300 300 300 300 300 300 300 300 300 300 300 300 300 300 300 300 301 301 301 301 300 300 300 300 299 298 297 297 296 296 296 296 296 296 296 296 296 296 297 297 297 297 297 297
313 313 313 313 313 314 314 314 314 314 314 313 313 312 313 313 313 313 314 314 314 313 313 313 313 312 311 310 309 308 307 307 307 305 302 302 301 301 301 301 300 300 300 299 299 299 300 300 300 300 300 300 300 300 300 300 300 300 300 300 301 301 300 300 300 299 298 297 296 295 295 295 295 295 295 295 295 296 296 296 296 296 296 297 297
313 313 313 313 313 313 313 313 313 313 313 312 312 312 312 312 313 313 313 313 313 313 313 313 313 313 312 310 309 308 307 307 307 306 304 302 301 301 301 300 300 300 299 299 299 299 299 300 300 300 300 300 300 300 300 300 300 300 300 300 300 300 300 300 299 299 298 297 296 295 295 294 295 294 294 295 295 295 295 296 296 296 296 296 296
313 313 313 313 313 313 313 312 313 312 312 312 311 311 311 311 312 312 313 313 313 313 313 313 313 313 313 311 310 308 307 307 307 307 306 304 302 301 301 300 300 300 299 299 299 299 299 300 300 300 300 300 300 299 299 299 300 300 300 300 300 300 299 299 299 298 297 297 296 295 295 294 294 294 294 294 295 295 295 295 296 296 296 296 296
313 313 313 313 313 313 313 313 312 312 311 311 312 312 312 312 312 313 313 313 313 313 313 313 313 313 313 312 311 309 308 307 307 307 306 305 303 301 300 300 300 300 300 299 299 299 299 299 299 299 299 299 299 299 299 299 299 299 299 299 299 299 299 298 298 297 296 296 296 295 295 294 294 294 294 294 294 295 295 295 295 295 296 296 296
313 314 314 314 314 313 313 313 312 312 312 312 312 312 312 312 312 313 314 313 313 313 313 313 313 312 312 312 311 309 308 307 307 306 306 306 304 302 300 300 300 300 299 299 299 298 298 299 299 299 299 299 299 299 299 299 299 299 299 299 299 298 298 298 297 296 295 295 295 294 294 294 294 294 294 294 294 294 294 295 295 295 295 296 296
314 314 314 314 314 314 314 313 312 313 312 312 312 312 312 311 311 312 312 312 312 313 313 313 313 312 312 312 311 310 308 307 307 306 305 306 305 303 300 300 300 300 299 299 298 298 298 299 299 299 299 299 299 299 299 299 299 299 299 299 299 298 297 297 296 296 295 294 294 294 294 294 294 294 294 294 294 294 294 294 295 295 295 295 295
313 313 313 313 312 313 313 312 313 313 312 312 312 312 311 310 310 310 310 311 311 311 311 312 312 312 312 311 311 311 309 308 307 305 305 305 305 304 302 300 300 300 299 299 299 299 299 298 299 299 299 299 299 299 299 299 298 299 299 298 298 298 297 298 297 296 295 295 294 294 294 293 293 294 294 294 294 294 294 294 294 295 295 295 295
312 313 313 312 312 312 311 311 312 312 312 312 312 311 310 310 309 309 309 309 310 310 311 311 312 311 311 311 311 311 310 309 308 306 304 304 305 305 303 301 299 299 299 299 299 299 299 299 298 298 299 299 299 299 299 298 298 298 298 299 298 298 299 299 297 296 296 295 295 295 294 293 293 293 294 294 294 294 294 294 294 294 294 294 294
313 313 313 312 312 311 311 311 311 311 311 311 311 311 311 310 310 309 309 309 310 310 311 312 311 312 312 311 311 311 310 309 308 307 305 304 304 304 303 301 300 299 299 299 299 298 298 298 298 298 298 299 299 299 298 298 298 298 298 299 299 299 299 299 298 296 296 296 296 295 295 293 293 293 293 293 293 293 294 294 294 294 294 293 293
314 314 313 312 312 312 311 310 310 310 310 310 310 310 310 310 310 310 310 309 310 311 311 311 311 311 311 311 311 310 310 309 309 307 305 303 303 303 303 302 299 299 298 298 298 298 298 298 298 298 298 298 298 298 298 298 298 298 298 298 298 298 298 299 298 298 297 296 296 296 295 294 293 293 293 293 293 293 293 294 294 293 293 293 293
313 312 312 312 312 312 312 311 310 310 309 309 309 309 309 309 309 309 309 309 309 309 310 309 310 310 310 310 310 310 310 309 309 308 306 304 303 302 302 301 299 298 298 298 298 298 298 297 297 297 297 298 298 298 298 298 298 298 298 298 298 298 298 298 298 298 298 297 296 296 295 294 293 292 292 292 293 293 293 293 293 293 293 292 292
310 310 309 310 311 311 311 311 311 310 310 309 309 308 309 308 308 308 308 308 308 308 308 308 309 309 309 310 309 309 309 309 309 308 307 305 303 303 302 302 300 298 298 298 298 298 297 297 297 297 297 297 297 298 298 298 298 298 298 298 298 298 298 298 298 298 298 297 296 296 295 294 293 292 292 292 292 292 292 293 293 292 292 292 292
309 309 308 308 309 310 310 310 310 310 309 309 308 308 308 308 308 307 307 307 307 307 307 307 308 308 308 309 309 309 309 309 308 308 307 306 304 303 302 301 301 299 298 298 298 297 297 297 297 297 297 297 297 297 297 298 297 298 298 298 298 298 297 297 298 298 298 297 296 296 295 294 293 292 292 292 292 292 292 292 292 292 292 292 292
309 308 308 308 308 308 308 308 308 308 308 307 307 307 307 307 307 307 307 307 307 307 307 307 308 308 308 308 308 308 308 308 308 308 307 306 305 304 302 301 301 300 298 298 298 297 297 297 297 297 296 297 297 297 297 297 297 297 297 297 297 298 297 297 297 297 298 298 297 296 295 293 292 291 291 292 292 292 292 292 292 292 292 291 291
Wind_Speed
23 24 23 22 21 20 20 20 19 19 18 17 16 14 13 12 12 12 12 12 12 11 10 9 8 8 7 6 6 6 6 6 6 6 6 5 5 5 4 4 3 2 2 2 2 3 2 1 1 1 2 3 4 5 4 3 2 2 3 3 4 4 5 5 5 6 5 5 5 6 6 7 8 8 7 5 5 6 6 6 5 5 4 4 4
17 23 23 23 21 20 19 20 19 19 18 17 16 14 14 13 13 13 12 11 11 10 9 9 9 8 7 7 7 7 6 6 6 6 6 5 5 5 5 4 4 3 2 2 3 3 3 3 3 3 4 3 2 2 2 1 1 3 4 3 2 3 4 4 5 5 5 5 5 5 6 6 8 9 7 4 4 4 4 4 3 4 4 5 4
14 20 21 22 21 21 20 19 19 19 18 18 16 15 14 14 14 14 12 11 11 10 10 10 9 9 8 8 8 8 7 7 7 7 6 6 6 5 5 4 3 3 2 2 3 4 4 5 5 5 5 3 2 3 2 2 2 3 3 2 2 2 2 3 3 3 4 4 3 4 4 5 7 8 6 4 4 3 3 3 3 2 1 2 3
13 17 19 21 21 21 20 20 19 19 19 17 17 16 16 15 15 15 14 13 12 11 10 10 10 10 9 9 8 8 8 8 8 8 8 7 7 6 5 4 4 4 4 4 4 4 5 5 5 5 5 3 3 3 3 4 4 5 4 3 3 3 3 3 3 2 2 2 2 2 2 3 4 6 5 3 2 2 3 3 3 3 2 3 2
11 16 18 19 19 20 20 20 20 20 19 18 18 17 17 16 16 15 15 14 13 12 11 11 11 10 9 9 8 8 8 8 9 9 8 8 8 7 6 6 5 5 5 4 5 5 6 6 5 4 3 3 3 3 4 6 7 7 6 5 4 4 4 4 4 3 3 3 2 1 1 1 3 4 4 2 1 0 1 1 1 2 3 4 4
11 14 17 17 18 19 19 20 20 20 19 19 19 18 18 17 16 15 15 15 14 13 12 11 11 11 10 10 10 10 10 10 11 10 9 9 9 8 7 7 6 6 5 6 7 7 7 6 5 4 4 4 5 6 7 8 9 8 8 7 6 6 5 5 5 5 4 4 3 2 1 1 2 3 3 2 2 2 2 2 1 0 1 2 3
10 14 16 17 17 17 18 19 19 19 19 19 19 19 18 16 15 15 15 14 14 13 12 11 11 11 11 11 11 12 12 13 13 12 10 10 11 10 8 8 7 7 7 8 9 8 7 6 6 6 6 7 9 9 9 9 9 9 8 8 8 8 7 7 6 6 5 5 5 3 3 2 3 4 3 1 2 4 5 5 3 3 3 3 4
10 13 16 17 17 17 18 18 19 19 19 19 19 19 18 17 16 15 14 14 13 12 12 12 12 12 13 13 13 14 14 15 14 13 12 11 12 11 10 10 10 10 10 11 11 10 10 10 9 9 9 11 12 11 10 10 9 9 8 8 8 8 8 8 8 7 7 7 6 5 4 4 4 5 5 4 3 5 7 7 5 5 5 5 5
10 12 15 17 17 18 18 19 19 18 19 19 19 19 18 17 17 16 14 14 13 13 14 14 13 14 14 14 15 16 17 17 16 14 14 14 13 13 13 12 12 13 13 13 13 13 12 12 12 12 12 12 11 10 9 9 8 7 7 7 7 7 7 7 8 8 9 9 8 8 7 6 5 5 7 7 5 7 8 8 7 6 6 6 6
10 12 14 17 18 19 19 19 19 19 19 19 19 18 18 17 17 16 15 14 14 15 15 14 15 16 16 16 16 17 18 18 17 17 16 15 15 15 15 13 13 13 13 13 14 13 11 11 11 11 11 10 9 8 8 7 6 5 5 5 4 5 5 6 6 7 8 9 10 10 10 9 8 7 8 9 10 10 9 9 9 8 7 6 6
11 12 14 17 19 20 20 20 20 19 19 19 19 18 17 17 17 16 15 16 16 16 16 16 17 18 18 17 18 19 19 19 20 18 16 15 15 15 14 13 12 12 12 12 12 11 10 10 10 9 8 8 7 6 5 4 3 3 3 3 3 3 3 3 3 5 6 8 9 10 11 11 11 10 10 12 13 13 11 9 9 9 8 7 6
12 13 14 16 18 20 21 21 20 20 19 19 18 17 17 17 17 18 18 19 19 19 19 20 19 19 19 18 19 21 19 21 20 17 15 14 13 13 13 12 11 12 11 11 10 9 10 9 8 7 6 5 4 2 1 1 2 2 3 4 4 4 4 4 3 3 3 5 7 9 11 12 12 12 14 15 15 14 12 11 10 10 10 9 6
13 14 15 17 18 20 21 21 21 20 19 19 18 17 17 17 17 19 20 20 20 20 20 20 20 20 20 19 19 19 18 19 16 13 13 12 12 12 12 11 11 11 10 10 9 9 9 8 6 5 4 2 1 0 1 2 2 3 3 4 4 4 4 4 4 4 3 3 4 6 9 11 13 14 16 17 16 15 14 14 13 12 11 10 7
13 14 15 17 18 19 20 21 21 20 20 19 19 18 18 18 18 19 19 19 19 19 19 19 19 19 19 18 17 16 16 15 12 11 12 11 12 11 10 10 10 10 9 8 8 8 7 6 4 3 2 1 1 1 2 3 3 4 4 4 5 5 5 5 5 5 5 5 5 5 6 8 11 14 17 18 18 17 16 16 15 14 13 12 11
13 14 15 17 18 19 20 21 21 21 20 19 19 19 19 18 19 19 19 20 20 19 20 19 19 19 18 17 16 15 14 12 11 11 10 10 11 10 9 9 9 8 7 7 7 6 5 4 3 2 1 0 1 2 3 3 4 4 5 5 5 5 5 5 5 5 5 6 6 6 6 7 9 12 15 17 18 19 18 18 17 17 16 15 14
13 15 16 17 18 19 20 21 21 21 21 20 20 19 19 19 19 20 20 20 19 20 20 20 19 18 17 16 15 14 12 11 11 10 10 10 9 8 8 8 8 7 7 6 6 5 4 4 3 2 1 0 1 2 2 3 3 4 4 4 5 5 5 5 5 5 5 6 7 7 7 8 8 11 13 16 18 18 19 19 19 19 18 17 16
15 16 17 18 19 19 20 21 21 22 22 22 21 20 20 20 20 20 20 20 19 19 20 19 18 17 16 16 15 14 12 12 11 11 10 9 8 7 7 7 7 7 6 6 6 5 4 3 2 2 1 1 1 1 2 2 3 3 3 3 4 4 4 5 5 5 5 6 7 8 8 9 9 10 12 14 17 18 18 18 19 19 19 19 18
16 17 18 19 20 20 21 21 22 23 23 23 22 22 22 21 21 21 21 20 20 19 19 19 18 17 16 16 16 15 14 13 12 11 10 9 8 7 7 7 7 7 7 6 6 5 4 4 3 2 2 1 0 1 2 2 2 2 2 3 3 3 3 4 4 4 5 6 7 9 10 10 10 10 11 13 15 16 16 17 18 19 19 20 20
18 19 19 20 21 21 22 22 23 23 24 24 23 23 23 22 22 22 22 22 21 20 19 19 18 17 17 16 16 15 15 14 13 12 11 10 9 9 8 8 8 7 7 6 5 5 4 4 3 3 2 1 1 1 2 2 2 2 2 3 3 3 3 3 3 3 4 5 6 8 10 11 12 11 11 13 14 14 14 15 16 18 19 20 20
21 21 21 22 22 22 23 23 24 24 25 25 24 25 24 24 23 23 23 22 22 22 20 19 18 17 17 17 16 16 16 15 14 13 12 11 11 10 10 10 9 8 8 7 6 5 5 4 4 3 2 2 2 3 3 3 3 3 3 3 3 3 3 2 2 2 3 4 6 7 9 11 12 13 13 13 13 13 13 13 14 15 17 18 19
23 23 23 23 24 24 24 24 25 25 26 26 26 26 26 25 25 25 24 24 23 23 22 20 19 18 18 18 18 18 17 16 15 13 12 12 12 11 11 11 10 10 9 8 7 6 6 5 4 3 3 3 4 4 4 4 4 4 4 4 4 3 3 3 3 2 3 4 5 7 9 10 12 13 14 14 14 13 13 13 13 13 14 15 16
24 25 25 25 25 25 25 25 26 26 27 27 27 27 27 27 26 26 26 25 25 25 23 21 20 19 19 19 19 19 18 17 15 14 14 13 13 13 13 12 11 11 10 9 8 8 7 6 4 4 4 4 5 5 6 6 6 6 6 6 5 5 4 4 4 3 3 4 5 6 8 10 11 13 14 14 14 14 13 13 13 13 13 14 14
25 25 26 26 27 26 26 26 26 27 28 28 29 29 29 29 28 28 28 27 27 26 25 23 21 21 20 20 20 20 19 18 16 16 15 15 15 14 14 13 13 12 11 10 10 9 8 7 5 4 4 4 5 5 6 6 7 7 7 7 7 6 6 5 5 4 4 4 5 6 7 9 10 12 13 14 14 14 13 13 14 14 14 14 14
25 25 26 27 28 28 27 27 28 28 29 29 30 30 30 30 30 30 29 28 28 27 27 25 23 22 21 21 22 22 21 19 18 18 17 16 16 16 15 14 13 12 12 11 11 10 9 7 6 5 4 4 4 5 5 6 6 7 7 7 8 8 7 7 7 6 5 5 5 6 7 8 9 11 12 13 14 14 13 13 14 14 14 14 14
25 27 28 28 28 28 29 28 29 30 30 30 30 31 32 32 32 32 31 30 30 29 28 27 25 24 23 23 23 23 23 22 20 19 18 17 17 16 16 15 14 13 13 12 12 11 9 7 6 5 4 4 4 4 5 6 6 7 7 7 8 8 8 8 8 7 7 6 6 6 6 7 9 10 12 13 13 13 14 14 14 14 14 14 14
26 27 27 27 29 29 30 30 30 31 31 31 31 32 33 34 34 34 33 33 32 31 31 29 27 26 25 25 25 26 25 24 22 21 19 18 18 17 17 16 15 15 14 13 12 11 9 8 7 6 5 4 4 5 5 6 7 7 8 8 8 8 8 8 8 8 8 7 7 7 7 7 8 9 11 12 13 14 14 14 14 14 14 14 15
25 26 26 27 29 30 31 31 31 31 32 32 32 33 34 35 35 36 35 35 35 34 33 31 29 28 27 27 28 28 27 26 24 22 21 20 19 19 18 17 17 16 15 14 13 12 10 9 7 6 5 5 5 5 6 7 8 8 8 8 8 8 8 8 8 8 8 8 8 8 8 8 8 9 11 12 13 14 14 14 14 14 14 14 15
25 25 26 28 28 30 31 31 32 32 33 34 34 34 34 35 36 37 37 37 37 36 35 33 31 30 29 29 29 30 30 28 26 24 23 21 21 21 20 19 19 18 17 16 15 13 11 10 8 7 6 6 6 6 7 7 8 8 9 9 9 9 9 9 9 9 9 9 9 9 9 9 9 10 11 12 13 14 14 15 14 13 13 14 14
25 24 25 27 27 29 31 32 33 33 34 34 35 35 34 35 37 37 38 38 38 38 36 35 34 32 31 31 31 32 32 30 28 26 24 23 23 23 22 21 20 19 18 17 16 14 12 11 9 8 7 7 6 6 7 7 8 8 9 9 9 9 9 9 9 9 9 9 9 9 9 9 10 10 11 12 12 13 14 15 14 13 13 13 12
24 24 25 26 27 29 31 32 33 34 35 35 35 36 36 36 37 37 38 38 39 39 38 37 36 35 34 33 33 33 33 32 30 28 27 25 25 25 24 23 22 21 20 19 17 15 14 12 11 10 8 7 7 7 7 7 8 8 9 9 9 9 9 9 9 9 9 9 9 9 10 10 10 11 11 12 12 13 14 14 15 14 13 11 10
25 26 26 25 28 30 30 32 33 34 36 36 36 36 37 38 37 37 38 39 39 39 39 39 38 37 35 34 34 35 35 34 32 31 29 28 27 26 25 25 24 23 21 20 18 17 15 14 13 11 10 8 7 7 7 7 8 8 9 9 9 9 9 10 9 9 9 9 10 10 10 10 10 11 11 11 12 12 13 13 14 14 13 11 9
30 29 26 27 28 29 30 32 34 35 36 36 36 37 38 38 38 38 39 39 39 40 41 41 40 39 37 36 36 36 36 36 35 33 31 30 29 28 27 26 25 24 22 21 20 18 17 16 15 13 11 9 8 8 7 7 7 8 9 9 9 10 10 10 10 10 10 10 10 10 10 10 10 11 11 11 11 12 12 12 12 12 12 11 10
34 32 30 30 29 29 31 32 34 36 37 37 37 37 38 39 39 39 39 40 40 41 42 42 41 40 39 38 37 37 37 37 37 35 34 32 31 30 29 28 26 25 24 22 21 20 19 18 16 14 12 11 10 9 8 7 7 7 8 9 9 10 10 10 10 10 10 10 10 10 10 10 10 10 11 11 11 11 11 11 11 11 11 11 10
38 35 34 33 31 30 31 32 33 35 37 37 38 38 39 39 40 40 40 41 41 42 42 42 42 42 41 40 39 39 38 38 38 37 36 35 33 32 31 29 28 26 25 24 23 22 21 20 17 15 13 12 10 9 8 7 6 7 8 8 9 10 10 10 10 10 10 10 10 10 10 10 10 10 10 10 11 11 10 10 10 10 11 11 11
42 40 38 35 34 33 33 33 33 34 36 38 39 39 40 40 40 41 41 42 42 42 42 43 43 43 43 42 41 40 39 39 39 39 38 36 35 34 32 31 30 28 27 26 25 24 23 21 19 16 15 13 11 10 8 7 7 7 8 8 9 10 10 10 10 10 10 9 9 9 9 9 9 10 10 10 10 10 10 10 9 10 10 11 11
43 41 40 38 37 36 36 36 35 35 36 37 39 39 40 41 41 42 42 42 43 43 43 43 44 45 45 44 44 42 41 40 40 40 39 38 37 35 34 33 31 30 29 27 26 26 25 23 20 18 16 14 12 10 9 8 8 7 7 8 9 9 10 10 10 9 9 8 8 9 9 9 10 10 10 10 10 10 9 9 9 9 10 10 11
38 37 37 36 36 37 37 38 38 37 36 37 39 40 40 41 42 43 43 44 44 44 44 44 45 46 46 46 46 44 43 41 41 41 40 40 38 37 35 34 33 32 30 29 28 28 26 24 22 20 18 15 13 12 11 9 8 8 7 8 8 9 10 10 9 8 8 8 8 8 9 10 10 10 10 10 10 10 9 10 9 10 10 10 10
33 32 32 32 33 34 35 36 36 37 36 37 38 40 41 42 43 44 44 45 45 45 45 45 46 47 48 48 47 46 44 43 42 41 41 41 40 38 37 36 35 34 32 31 30 30 28 26 23 21 19 16 15 13 12 11 9 8 7 7 8 9 9 9 9 8 8 8 8 8 8 9 10 10 10 10 10 10 10 10 9 9 9 9 9
30 29 28 28 30 31 33 34 35 35 35 36 38 40 41 42 43 44 45 45 46 47 47 47 47 47 49 49 48 47 46 44 43 42 42 42 41 40 39 38 37 35 34 33 32 32 30 28 25 23 20 18 16 15 14 12 10 9 8 7 8 8 9 9 8 8 8 9 9 9 8 8 8 9 9 9 9 9 9 9 9 9 8 8 8
27 25 25 25 26 28 30 32 33 33 34 36 38 40 42 43 44 45 46 47 47 48 48 48 48 48 49 49 49 49 48 46 45 44 43 42 43 42 42 41 39 37 36 35 34 33 31 29 26 24 22 20 19 17 16 14 12 9 8 7 7 7 8 8 8 8 8 9 10 10 10 9 9 9 9 9 9 8 8 8 8 8 8 7 7
24 22 22 21 22 23 25 27 29 30 32 35 37 39 42 43 44 45 45 46 48 49 49 49 49 49 49 50 50 50 50 48 47 45 44 44 44 44 44 43 41 39 37 36 34 33 32 30 27 26 24 22 21 19 18 16 13 11 9 7 6 6 7 7 7 8 8 9 10 11 10 10 10 10 10 10 9 9 9 9 8 8 8 7 7
20 18 17 16 17 18 20 23 25 28 30 32 35 37 40 42 42 42 42 45 48 49 48 48 49 50 50 51 51 52 51 50 49 48 47 46 46 46 45 44 42 40 39 37 36 35 33 32 30 28 26 24 23 21 20 18 15 12 10 7 6 6 6 7 8 9 10 10 10 10 9 9 9 10 10 10 9 9 9 9 8 8 8 8 8
16 14 14 14 16 17 18 20 22 24 27 29 32 34 37 40 42 42 43 44 47 49 49 49 49 51 52 52 53 53 52 52 51 50 49 48 47 46 45 44 42 41 40 39 38 37 36 34 32 30 29 27 25 23 22 19 16 13 10 8 8 7 7 10 11 12 12 12 11 10 9 9 8 9 9 9 9 9 9 9 9 8 8 8 9
13 12 12 14 16 17 17 18 19 21 24 27 29 32 35 38 41 42 43 44 46 47 49 50 52 53 53 53 53 53 53 53 53 52 51 49 47 46 45 44 44 43 42 41 40 39 37 36 34 33 31 29 27 26 24 21 18 15 12 9 8 8 9 11 12 14 15 15 14 13 12 11 10 10 9 10 10 10 10 10 10 9 9 9 9
12 11 12 14 15 17 18 18 20 21 22 25 27 31 34 37 40 42 44 45 46 47 49 51 53 54 54 54 54 53 53 53 53 53 51 49 48 47 46 45 45 44 43 42 42 40 38 37 36 35 34 31 29 27 25 23 20 18 15 11 9 9 9 9 10 13 15 16 17 17 17 15 13 11 11 10 10 11 11 11 10 9 9 9 9
14 13 13 14 15 16 18 20 21 22 22 24 26 30 32 35 39 41 44 46 48 49 50 51 53 53 52 53 52 51 52 52 52 53 52 51 49 48 47 46 46 46 45 44 43 41 40 38 37 36 34 32 31 29 26 24 22 21 19 17 14 12 11 9 10 12 13 15 17 17 17 18 16 13 12 12 11 11 11 10 10 10 10 10 9
16 15 15 14 14 15 16 19 21 22 23 24 26 29 32 35 38 39 42 43 46 47 48 49 49 48 48 49 49 50 50 51 52 52 53 52 50 49 48 47 46 46 45 45 44 42 40 38 37 36 34 33 33 30 28 26 24 23 21 19 17 15 13 12 12 12 11 13 16 15 15 17 17 14 14 13 12 11 11 10 10 10 10 10 10
18 17 17 15 13 12 14 16 18 21 23 24 27 30 32 35 36 37 39 41 42 43 43 44 45 45 46 46 47 48 49 50 51 52 53 53 52 50 49 48 47 47 46 46 44 42 40 39 39 37 36 35 34 32 29 28 27 25 23 21 19 17 15 14 13 13 12 12 14 14 14 16 16 15 14 14 13 12 11 10 10 10 10 10 10
21 20 20 18 14 11 11 13 16 19 21 23 26 28 31 33 35 36 37 37 38 39 40 41 42 43 44 44 45 46 48 49 50 51 52 53 52 52 50 49 48 47 47 46 44 42 42 41 40 39 38 37 35 33 31 30 28 26 24 22 20 18 16 14 14 13 14 14 14 14 14 15 16 14 13 13 12 11 11 11 10 10 10 10 8
24 23 22 20 17 13 11 11 14 16 19 22 24 26 28 31 33 34 35 35 36 37 38 39 39 40 42 44 44 44 46 48 49 50 51 52 52 52 51 50 49 47 46 46 45 44 43 42 41 39 38 37 36 35 33 30 29 27 25 24 22 20 18 16 15 13 13 15 15 15 14 15 15 13 13 13 12 11 11 11 10 9 9 8 6
26 26 25 23 22 19 17 15 15 15 17 19 21 24 26 28 30 31 32 33 34 35 36 36 37 38 39 41 42 42 43 45 47 49 51 51 52 52 51 50 48 47 47 47 46 45 43 42 41 40 40 39 37 36 34 32 30 28 27 26 24 22 19 17 15 13 13 14 14 14 14 14 13 12 12 13 12 12 12 11 10 9 8 7 4
Wind_Direction
190 191 194 197 197 191 188 187 190 193 195 195 194 193 193 195 195 194 189 186 185 186 188 190 195 198 203 205 204 202 206 210 212 212 209 206 203 205 210 213 218 222 220 238 246 253 255 257 278 278 242 201 193 192 183 175 131 73 61 58 50 41 39 35 33 34 40 53 65 78 85 93 95 97 93 84 80 76 68 61 65 75 85 96 102
192 192 194 198 201 198 194 192 193 195 197 197 197 197 197 198 198 199 198 196 194 193 195 197 201 204 208 211 214 214 217 220 222 221 218 217 213 212 214 215 217 215 214 245 257 256 246 232 213 204 226 223 224 232 225 214 68 57 65 71 58 40 34 31 27 25 26 38 53 70 79 85 89 96 97 93 93 84 72 58 54 70 84 86 99
187 194 195 199 203 202 199 198 197 196 197 198 199 198 198 200 199 200 200 201 200 200 202 204 209 211 213 218 225 227 230 230 229 226 222 220 216 216 209 207 205 202 204 217 231 236 234 229 226 232 246 258 294 304 318 340 359 21 44 45 33 25 18 20 18 17 13 22 43 64 77 88 92 97 107 115 100 78 62 43 21 31 58 64 80
181 192 196 200 204 204 204 202 201 200 200 200 201 202 201 202 203 203 205 208 210 210 209 210 213 216 221 225 230 232 235 234 234 229 225 221 217 215 205 203 204 203 205 213 216 212 216 225 238 254 266 276 291 304 324 334 339 342 356 358 351 349 344 347 345 351 351 358 21 56 81 99 107 106 112 125 102 64 47 40 18 11 346 331 342
176 187 195 199 203 205 206 205 203 204 205 205 206 207 207 208 208 209 210 214 217 219 217 216 216 219 224 223 224 226 231 232 232 230 226 222 215 209 202 204 204 203 202 209 209 204 218 235 246 257 260 257 271 286 300 310 318 322 326 331 332 328 323 324 322 321 320 322 340 12 79 122 146 128 108 119 147 1 0 49 38 21 10 343 331
178 184 193 197 200 204 207 207 205 207 209 209 211 212 214 213 214 217 218 218 218 221 221 219 218 218 217 215 216 221 225 224 226 229 229 227 224 216 209 212 212 209 203 204 210 219 236 246 253 262 249 239 266 281 285 293 300 307 309 312 311 307 303 303 305 305 305 305 308 313 302 214 197 182 123 99 246 257 273 256 211 243 337 326 320
182 185 192 196 199 203 206 208 207 209 211 212 214 216 218 215 215 220 222 221 219 218 217 216 215 213 212 213 213 217 220 221 226 229 230 233 232 231 226 223 220 215 212 219 229 239 250 256 260 263 249 251 277 286 285 290 293 296 298 299 297 294 289 283 282 285 289 293 292 291 284 259 236 222 191 146 256 251 257 259 251 249 268 282 284
187 187 192 196 199 203 206 208 209 210 212 216 217 217 217 214 211 215 219 221 218 213 211 211 211 211 213 213 213 216 220 224 229 231 234 236 236 238 238 234 231 229 232 240 248 252 255 260 261 260 258 265 281 287 288 290 290 292 294 294 293 289 284 276 268 265 267 272 277 278 274 262 248 238 229 219 228 247 253 256 256 261 275 282 279
198 191 192 198 201 205 207 208 210 210 212 216 217 216 214 212 209 209 213 215 212 207 207 209 211 213 213 214 215 217 223 229 232 234 239 241 239 240 242 242 241 244 248 252 256 257 258 259 258 261 265 272 281 286 288 288 287 289 290 289 288 285 281 274 265 258 256 256 261 265 265 261 251 243 240 233 232 248 252 254 256 262 272 274 269
213 203 197 199 203 207 209 210 209 209 211 213 214 213 211 211 207 204 208 209 208 207 207 209 212 213 213 214 217 221 227 234 238 241 245 244 240 240 243 245 245 248 250 252 256 259 259 257 257 261 268 275 282 286 288 289 291 293 293 291 289 287 281 273 264 256 250 248 249 252 255 256 253 246 243 240 242 249 251 257 260 258 263 265 258
224 216 207 204 206 209 210 211 210 209 209 210 210 208 207 207 201 195 201 205 205 207 206 210 214 214 215 216 220 227 232 239 246 249 250 246 240 240 242 244 244 247 247 249 255 258 258 257 259 262 269 275 278 282 285 292 304 316 326 331 332 328 320 304 284 265 252 245 242 241 244 247 249 246 243 243 246 252 255 258 261 257 255 254 253
232 225 218 211 210 212 213 213 212 210 210 210 209 207 204 203 197 191 198 205 208 208 209 213 216 219 222 225 229 234 237 243 248 249 246 242 239 237 239 240 241 245 245 247 250 253 254 258 262 266 267 265 262 264 279 332 353 357 356 353 351 349 345 341 331 315 285 260 247 240 239 240 242 243 244 246 249 253 255 257 258 255 251 249 251
236 233 225 219 216 216 216 216 215 213 212 212 210 207 205 204 203 201 205 212 216 216 216 220 222 227 231 233 236 237 238 244 246 242 238 234 231 231 234 237 239 243 244 243 244 245 248 252 255 252 243 230 218 50 23 12 6 358 353 346 342 340 337 335 330 324 316 298 273 253 243 239 238 240 244 248 251 252 251 253 254 253 252 250 246
237 237 232 226 222 221 220 219 219 218 216 215 212 209 208 209 209 211 215 219 223 226 227 228 229 232 234 234 236 236 239 245 244 237 231 225 225 226 228 232 237 240 240 238 237 235 233 230 223 215 203 176 33 13 2 357 353 349 346 341 336 332 328 325 322 317 312 306 299 285 264 248 241 240 244 249 252 252 251 249 250 251 251 250 246
234 236 236 233 229 226 224 222 222 221 221 219 216 214 213 213 214 216 220 223 227 233 235 234 234 235 233 233 235 237 241 241 237 232 227 222 222 222 224 230 235 234 230 226 223 216 205 197 190 182 178 17 3 358 357 354 352 348 343 338 333 328 325 321 316 312 308 303 298 296 289 273 255 246 246 249 252 252 251 249 248 249 249 249 249
231 232 233 235 235 233 229 227 225 223 224 222 220 219 218 218 220 221 223 227 231 234 236 236 235 235 234 232 234 238 239 234 232 229 226 223 220 220 223 226 226 221 215 206 197 187 181 177 172 169 160 52 20 13 7 1 354 348 341 336 331 325 322 317 312 306 300 295 291 288 288 283 271 259 252 250 253 254 252 250 248 248 248 249 252
232 230 231 233 234 237 235 232 229 227 226 225 224 222 222 223 223 224 226 230 233 234 236 237 237 235 234 231 232 236 235 231 229 225 223 222 220 220 220 217 212 204 195 187 181 178 177 176 175 175 155 114 71 34 12 2 352 346 341 335 332 327 324 319 314 308 299 292 288 285 284 282 277 268 259 254 255 257 255 252 249 249 249 250 251
234 232 230 232 233 236 238 236 234 231 230 228 227 225 225 226 224 224 227 230 232 234 236 236 236 233 231 230 231 231 229 226 224 222 221 221 221 219 216 211 204 196 190 186 184 184 184 187 185 180 166 148 92 5 348 348 347 349 350 350 350 344 340 333 323 313 302 293 287 285 285 285 281 275 268 261 260 262 260 256 253 252 252 252 252
235 234 231 232 233 234 236 237 237 235 234 232 230 229 228 227 226 225 227 230 232 233 235 233 232 230 228 229 229 226 222 220 219 220 219 219 220 218 214 208 205 201 198 198 198 200 199 198 194 190 194 221 286 309 321 330 343 356 6 12 13 9 1 349 335 315 298 287 282 281 282 283 283 280 276 272 271 271 268 262 258 256 255 255 256
237 236 234 233 232 234 235 235 235 236 236 235 233 231 231 229 227 228 229 231 231 232 234 232 229 229 229 227 224 220 216 215 218 220 219 217 217 215 212 207 207 206 206 209 210 212 210 207 206 211 233 266 292 306 318 330 343 355 6 13 14 14 8 356 339 310 286 273 270 271 273 277 279 280 279 278 279 279 277 271 264 261 259 258 258
242 239 238 236 233 234 235 235 234 233 235 236 235 234 233 231 228 229 230 231 231 232 233 232 229 228 228 225 221 216 213 215 219 220 217 215 214 211 208 207 207 207 208 211 212 214 212 215 221 235 263 287 305 315 324 334 343 351 357 2 6 5 4 356 341 316 288 269 261 259 262 267 271 275 276 277 278 280 281 279 274 269 264 262 261
248 245 242 240 238 237 236 236 235 233 233 234 235 235 235 233 230 230 230 231 231 232 234 232 230 229 228 224 219 214 213 216 218 218 215 213 211 208 207 207 207 208 209 211 212 213 214 219 231 252 281 299 312 321 329 337 342 348 352 354 357 358 356 351 342 329 307 286 269 260 258 260 264 268 270 272 274 276 278 279 278 275 272 269 267
252 250 248 245 242 241 239 239 237 235 234 233 234 235 236 235 232 231 231 231 231 233 235 234 232 232 229 224 218 214 214 216 216 215 213 211 209 208 208 208 208 210 210 211 212 212 214 220 233 255 278 296 309 319 327 335 340 344 349 351 353 353 352 349 343 335 320 303 284 272 265 261 263 264 266 268 270 273 275 276 276 275 275 274 273
260 257 253 248 245 244 243 241 238 236 235 234 234 234 236 236 234 233 233 232 232 233 234 235 235 234 231 224 218 215 215 215 215 214 213 211 209 209 209 210 211 211 212 212 212 213 214 220 233 251 268 284 297 311 323 332 339 343 347 349 351 352 351 349 344 337 329 315 297 283 274 267 265 265 266 267 268 270 271 272 273 273 273 274 274
264 257 252 249 248 247 245 243 240 237 235 235 234 235 235 235 235 234 234 233 234 234 235 236 236 235 232 227 220 216 216 217 217 217 215 212 210 211 211 212 213 213 214 214 214 215 218 226 236 248 261 275 291 310 324 335 342 345 347 348 349 350 349 348 345 340 334 324 310 295 282 272 267 266 266 266 266 266 267 268 270 271 271 273 273
261 256 254 251 249 247 247 244 242 240 237 236 235 235 235 235 235 234 234 234 234 235 235 236 236 236 233 228 223 219 219 219 219 219 217 213 211 212 213 214 215 216 217 218 219 220 224 229 236 246 258 275 294 314 329 340 344 345 346 345 345 345 345 345 343 340 336 328 318 305 292 279 270 266 266 265 264 263 264 265 266 268 269 270 270
264 260 257 253 249 247 246 244 243 242 239 238 236 235 235 236 236 235 235 235 235 235 236 237 236 236 234 231 226 223 222 221 221 220 218 215 212 213 215 216 217 218 220 220 221 222 226 229 237 248 260 279 299 318 330 338 341 343 342 341 341 340 340 340 339 337 332 327 319 309 299 285 276 268 265 264 263 263 262 262 263 264 265 266 267
262 259 254 251 249 247 246 244 243 243 241 239 237 236 236 236 236 236 235 235 236 236 237 237 236 236 235 232 228 226 225 224 223 222 220 216 214 215 216 217 217 219 220 220 221 222 226 230 239 251 262 279 297 313 325 333 337 339 338 337 335 334 334 334 334 332 328 323 317 309 301 291 282 272 267 264 262 261 259 258 258 258 258 260 261
264 261 255 251 248 246 246 244 242 242 241 240 238 238 237 237 237 236 236 235 235 236 236 237 236 236 235 233 230 228 227 226 225 223 221 218 216 217 218 218 218 219 220 220 221 223 226 231 239 248 258 273 289 305 317 327 332 334 333 331 329 327 327 328 328 327 324 319 314 307 300 292 285 278 273 269 264 261 257 254 252 251 250 252 254
275 270 261 257 251 246 244 243 242 242 241 240 239 238 237 237 238 238 238 237 236 236 236 236 236 236 235 234 232 231 230 228 226 224 223 220 219 219 219 219 219 219 219 220 221 223 226 230 236 243 252 265 280 296 308 318 325 328 327 325 323 321 321 321 322 321 319 315 310 303 297 291 284 280 276 271 265 259 255 251 249 248 244 243 245
278 272 269 266 257 250 247 243 242 241 241 240 239 238 237 238 238 238 238 238 238 237 236 236 236 236 235 234 233 232 231 229 226 225 224 222 221 221 221 220 220 220 219 220 222 223 226 229 234 240 249 259 270 284 295 307 315 319 321 320 318 316 316 317 318 317 316 312 308 302 295 290 284 278 274 267 262 257 252 249 247 246 239 231 230
275 274 278 273 264 259 254 247 243 241 242 241 239 238 237 237 238 238 238 239 239 238 237 236 236 236 235 234 234 233 232 229 227 225 224 223 222 222 223 222 222 222 221 222 222 224 226 229 233 238 244 251 261 272 283 296 306 312 314 315 314 313 314 314 315 315 314 311 307 302 295 289 282 274 268 262 257 255 252 250 248 245 237 225 220
277 276 273 270 270 268 261 255 248 244 243 243 240 238 238 237 237 238 238 238 238 238 237 237 236 235 235 234 234 233 232 230 228 226 225 224 223 223 224 223 223 223 223 223 223 224 226 229 232 235 240 245 254 262 272 285 296 305 308 311 311 311 312 313 314 314 313 310 306 301 294 286 278 269 263 259 256 256 254 253 250 246 239 226 218
281 278 272 270 272 272 268 263 257 250 246 244 242 240 238 237 236 236 237 237 237 237 238 237 237 235 235 234 234 233 232 231 229 227 226 224 224 223 224 224 224 224 224 224 223 224 226 228 230 232 235 240 246 252 262 275 287 296 304 309 311 310 311 312 313 314 312 308 303 296 289 280 271 263 259 257 257 258 256 254 251 247 244 237 232
282 280 277 276 273 271 270 268 265 259 251 246 244 242 240 238 236 236 236 237 237 237 238 237 237 235 235 234 234 233 232 231 229 228 226 225 225 224 224 224 225 225 224 224 223 224 226 228 229 230 233 235 239 245 252 262 275 288 300 307 310 310 310 312 312 311 308 302 295 287 279 272 265 259 257 256 257 258 257 256 253 250 248 248 248
283 281 280 278 274 271 270 268 267 265 260 253 246 243 242 239 238 237 236 236 237 237 237 237 237 236 235 234 234 233 232 231 230 229 227 226 226 225 225 225 225 225 224 224 223 224 226 227 229 229 230 231 232 238 243 252 267 282 297 305 309 310 310 310 310 307 302 292 282 273 266 263 260 258 258 257 258 257 257 256 252 251 250 251 254
285 283 280 278 275 273 270 269 268 267 265 259 251 245 242 240 238 237 236 236 236 237 236 236 236 236 235 235 234 233 232 232 231 230 229 228 227 226 226 226 226 225 224 224 223 225 226 227 229 228 227 226 227 233 238 247 263 278 293 303 308 310 310 308 307 302 291 277 266 260 257 256 256 257 258 258 259 258 257 255 252 250 250 251 255
291 287 284 280 277 274 271 270 269 266 263 260 256 248 243 241 239 238 237 237 236 237 236 236 236 236 235 234 234 233 232 232 231 230 229 228 227 226 226 227 226 226 224 224 224 225 226 227 227 226 225 224 224 230 237 246 259 271 285 297 305 308 308 306 303 296 280 263 253 251 251 251 252 253 254 255 256 257 257 255 252 250 249 249 251
296 292 289 284 279 276 273 270 267 264 260 257 255 249 243 240 239 238 237 237 236 236 236 235 235 235 236 235 234 234 233 232 231 231 230 229 227 226 226 226 227 226 225 224 224 225 226 226 226 225 224 223 225 229 236 243 250 260 271 285 296 302 303 302 296 285 271 257 248 245 247 249 251 249 248 248 248 251 252 253 251 250 249 249 249
298 294 291 286 281 279 275 272 267 263 259 254 250 246 242 238 236 235 234 234 234 234 234 234 234 235 235 235 234 233 233 233 232 231 230 229 228 227 226 226 226 226 225 225 225 226 227 227 227 225 224 223 225 227 233 239 242 246 255 271 285 294 295 292 286 277 264 253 245 242 243 246 249 248 246 243 242 241 241 244 245 245 245 244 245
300 295 293 290 286 281 275 271 268 264 259 254 250 246 242 237 235 235 234 233 233 232 232 232 233 233 234 234 233 233 232 232 232 231 230 229 228 227 227 226 226 226 226 227 227 227 227 226 226 225 224 223 225 227 231 234 235 236 241 252 266 277 280 275 269 264 255 248 242 238 239 241 245 248 247 245 243 239 236 235 236 236 237 236 235
309 303 299 296 289 280 272 269 266 263 258 256 252 249 246 242 240 241 239 236 234 233 232 232 232 232 232 232 232 231 231 232 232 231 230 229 228 227 227 226 226 227 226 226 226 225 225 225 224 224 223 223 223 227 230 231 230 231 235 239 244 251 256 256 250 244 238 234 232 231 230 232 238 243 246 246 243 241 239 236 234 233 233 231 228
327 313 299 291 284 278 272 266 262 260 257 255 253 251 250 248 246 245 243 240 238 235 233 233 232 232 231 231 231 230 230 231 231 231 230 229 228 228 228 227 227 228 227 226 225 224 223 224 224 224 224 223 222 225 229 231 229 225 225 230 234 228 234 244 240 232 226 222 222 222 221 225 232 237 241 243 242 240 239 238 236 233 230 226 221
342 328 308 291 282 277 271 264 259 257 256 254 252 251 250 248 246 245 244 243 243 240 237 235 233 232 232 231 231 230 229 230 230 231 230 229 229 228 229 228 228 228 228 228 227 226 225 224 224 224 224 223 223 225 227 228 228 226 222 220 222 221 238 247 236 227 223 221 224 224 226 230 231 232 233 235 237 235 235 236 235 233 227 219 214
344 336 319 301 287 278 271 264 258 254 253 253 251 250 248 246 244 243 241 240 240 239 237 235 233 232 231 231 230 229 229 229 230 231 231 230 230 229 229 228 228 229 228 228 229 229 227 226 224 224 225 225 226 227 227 227 228 231 230 225 221 227 247 250 228 222 224 227 233 236 238 236 231 235 239 239 239 237 236 235 233 230 220 211 206
337 328 321 310 296 280 268 261 257 253 251 251 250 249 248 246 244 242 240 238 238 237 235 233 233 232 232 231 231 230 230 229 230 230 231 230 230 230 229 228 228 228 228 229 228 228 227 226 225 225 225 226 227 228 228 229 231 234 237 240 242 247 252 243 223 223 229 233 237 242 241 230 227 242 251 252 251 245 242 238 231 221 209 200 191
330 319 317 312 304 289 271 260 257 256 254 251 249 249 247 246 245 245 244 243 242 242 240 239 238 237 236 235 233 231 231 230 230 230 230 230 230 230 230 229 229 229 229 229 228 227 226 226 226 226 226 226 226 227 229 231 233 235 238 243 247 249 250 245 237 236 238 235 233 239 237 224 226 242 251 254 254 247 244 238 226 212 198 189 178
328 319 316 311 305 296 282 268 259 257 255 253 251 251 250 249 248 248 247 246 246 247 248 247 245 243 241 239 236 233 231 230 230 230 230 230 230 229 230 230 230 230 229 229 229 228 226 225 224 224 224 225 226 227 229 232 235 237 238 240 242 244 245 249 250 247 244 240 237 237 232 222 227 236 242 248 248 243 240 231 216 203 191 181 172
348 342 336 326 316 305 292 279 268 263 259 256 255 254 255 254 253 252 250 250 249 248 249 249 248 246 244 242 239 235 232 230 230 231 231 231 231 230 230 230 230 230 230 230 229 228 226 225 224 224 224 224 226 226 228 233 237 240 241 241 241 241 241 245 249 249 247 245 243 239 230 223 224 229 236 240 238 236 232 222 208 195 186 178 168
12 11 6 356 344 335 320 301 285 275 268 264 262 260 259 257 256 255 253 252 250 248 248 248 248 247 245 245 242 238 234 232 231 231 231 231 231 231 230 230 231 231 231 230 229 227 226 225 225 225 225 225 226 226 228 232 235 239 242 242 241 241 241 243 248 253 252 248 245 241 236 227 223 227 234 235 234 231 222 211 201 190 183 177 165
25 25 23 19 13 6 356 340 322 303 288 278 271 267 263 261 260 259 257 255 252 250 249 249 248 246 245 245 244 242 237 234 233 232 232 232 231 231 231 231 231 232 231 230 229 228 227 226 225 225 225 225 226 227 228 230 232 235 239 241 244 246 247 250 255 258 259 256 249 243 238 229 226 229 229 230 230 226 218 207 198 191 183 179 163